AFL5065 UWOR-UWWW

Flight info

Callsign AFL5065
Flight time N/A
Altitude 34000
Route LALEP5C LALEP T750 UDATA UDATA2F
Aircraft B738/M-SDE2E3FGHIRWXY/LB1

Departure

Time 2026-04-24 07:51
Airport Orsk Airport (UWOR)

Arrival

Time N/A
Airport Kurumoch International Airport (UWWW)
Time Latitude Longitude Altitude Speed Heading
2026-04-24 06:58 51.07553 58.59352 895 ft 0 kts 77°
2026-04-24 07:42 51.07554 58.59357 895 ft 2 kts 77°
2026-04-24 07:42 51.07557 58.59376 895 ft 2 kts 77°
2026-04-24 07:43 51.07557 58.59397 895 ft 2 kts 98°
2026-04-24 07:43 51.07536 58.59419 895 ft 6 kts 163°
2026-04-24 07:43 51.07486 58.59437 895 ft 8 kts 167°
2026-04-24 07:43 51.07428 58.59461 895 ft 9 kts 165°
2026-04-24 07:44 51.07371 58.59485 897 ft 8 kts 166°
2026-04-24 07:44 51.07315 58.59506 898 ft 8 kts 166°
2026-04-24 07:44 51.07251 58.59513 895 ft 10 kts 207°
2026-04-24 07:44 51.07226 58.59406 897 ft 10 kts 257°
2026-04-24 07:45 51.07211 58.59296 898 ft 10 kts 257°
2026-04-24 07:45 51.07194 58.59188 899 ft 11 kts 255°
2026-04-24 07:45 51.07175 58.59073 901 ft 11 kts 257°
2026-04-24 07:45 51.07159 58.58960 905 ft 10 kts 257°
2026-04-24 07:46 51.07143 58.58850 909 ft 10 kts 256°
2026-04-24 07:46 51.07127 58.58744 910 ft 10 kts 257°
2026-04-24 07:46 51.07112 58.58642 910 ft 10 kts 257°
2026-04-24 07:46 51.07097 58.58541 911 ft 9 kts 257°
2026-04-24 07:47 51.07082 58.58440 912 ft 10 kts 256°
2026-04-24 07:47 51.07064 58.58316 915 ft 13 kts 257°
2026-04-24 07:47 51.07042 58.58172 912 ft 14 kts 257°
2026-04-24 07:47 51.07019 58.58013 910 ft 16 kts 256°
2026-04-24 07:48 51.06990 58.57825 911 ft 18 kts 257°
2026-04-24 07:48 51.06978 58.57696 912 ft 10 kts 271°
2026-04-24 07:48 51.07004 58.57605 914 ft 8 kts 273°
2026-04-24 07:48 51.07000 58.57586 914 ft 2 kts 240°
2026-04-24 07:49 51.06987 58.57567 914 ft 4 kts 215°
2026-04-24 07:49 51.06960 58.57568 914 ft 5 kts 155°
2026-04-24 07:49 51.06950 58.57618 913 ft 5 kts 68°
2026-04-24 07:49 51.06967 58.57672 912 ft 5 kts 75°
2026-04-24 07:50 51.06977 58.57737 913 ft 9 kts 76°
2026-04-24 07:50 51.07030 58.58094 912 ft 66 kts 76°
2026-04-24 07:50 51.07188 58.59152 899 ft 129 kts 77°
2026-04-24 07:50 51.07437 58.60781 1015 ft 169 kts 74°
2026-04-24 07:51 51.07701 58.62517 2016 ft 157 kts 75°
2026-04-24 07:51 51.07964 58.64266 2613 ft 165 kts 75°
2026-04-24 07:51 51.08250 58.66034 3334 ft 166 kts 82°
2026-04-24 07:51 51.08512 58.67910 3816 ft 177 kts 85°
2026-04-24 07:52 51.08783 58.69902 4227 ft 197 kts 87°
2026-04-24 07:52 51.08887 58.72146 4413 ft 205 kts 114°
2026-04-24 07:52 51.08123 58.73888 4759 ft 190 kts 154°
2026-04-24 07:52 51.06928 58.74478 5265 ft 180 kts 182°
2026-04-24 07:53 51.05739 58.73960 5781 ft 181 kts 210°
2026-04-24 07:53 51.04919 58.72424 6324 ft 191 kts 239°
2026-04-24 07:53 51.04806 58.70243 6819 ft 213 kts 272°
2026-04-24 07:53 51.05497 58.68042 7322 ft 229 kts 292°
2026-04-24 07:54 51.06402 58.65944 7797 ft 231 kts 292°
2026-04-24 07:54 51.07004 58.64536 8130 ft 232 kts 292°
2026-04-24 07:54 51.07906 58.62408 8687 ft 231 kts 289°
2026-04-24 07:54 51.08645 58.60084 8859 ft 242 kts 282°
2026-04-24 07:55 51.09319 58.57562 9202 ft 251 kts 282°
2026-04-24 07:55 51.09999 58.54989 9725 ft 253 kts 282°
2026-04-24 07:55 51.10692 58.52375 10098 ft 264 kts 282°
2026-04-24 07:55 51.11434 58.49560 10263 ft 286 kts 283°
2026-04-24 07:56 51.12237 58.46535 10438 ft 307 kts 284°
2026-04-24 07:56 51.13105 58.43301 10611 ft 327 kts 284°
2026-04-24 07:56 51.14017 58.39926 10907 ft 342 kts 284°
2026-04-24 07:56 51.14972 58.36424 11496 ft 346 kts 284°
2026-04-24 07:57 51.15907 58.32896 12232 ft 345 kts 284°
2026-04-24 07:57 51.16833 58.29369 12990 ft 345 kts 284°
2026-04-24 07:57 51.17765 58.25838 13718 ft 347 kts 284°
2026-04-24 07:57 51.18710 58.22283 14355 ft 349 kts 284°
2026-04-24 07:58 51.19669 58.18701 14991 ft 352 kts 284°
2026-04-24 07:58 51.20635 58.15099 15627 ft 354 kts 284°
2026-04-24 07:58 51.21613 58.11463 16279 ft 356 kts 284°
2026-04-24 07:58 51.22581 58.07858 16900 ft 359 kts 284°
2026-04-24 07:59 51.23569 58.04176 17506 ft 362 kts 284°
2026-04-24 07:59 51.24564 58.00466 18116 ft 364 kts 284°
2026-04-24 07:59 51.25563 57.96732 18632 ft 367 kts 284°
2026-04-24 07:59 51.26569 57.92964 19185 ft 370 kts 284°
2026-04-24 08:00 51.27589 57.89169 19733 ft 373 kts 285°
2026-04-24 08:00 51.28661 57.85377 20258 ft 376 kts 285°
2026-04-24 08:00 51.29759 57.81563 20774 ft 379 kts 285°
2026-04-24 08:00 51.30866 57.77706 21182 ft 384 kts 285°
2026-04-24 08:01 51.31975 57.73809 21623 ft 387 kts 285°
2026-04-24 08:01 51.33088 57.69881 22113 ft 388 kts 285°
2026-04-24 08:01 51.34184 57.65985 22587 ft 391 kts 284°
2026-04-24 08:01 51.35301 57.61999 23041 ft 393 kts 284°
2026-04-24 08:02 51.36420 57.57993 23461 ft 396 kts 284°
2026-04-24 08:02 51.37549 57.53949 23848 ft 398 kts 284°
2026-04-24 08:02 51.38682 57.49888 24286 ft 399 kts 284°
2026-04-24 08:02 51.39813 57.45836 24783 ft 398 kts 284°
2026-04-24 08:03 51.40940 57.41792 25271 ft 397 kts 284°
2026-04-24 08:03 51.42062 57.37755 25664 ft 397 kts 284°
2026-04-24 08:03 51.43172 57.33748 25999 ft 399 kts 284°
2026-04-24 08:03 51.44301 57.29660 26345 ft 401 kts 284°
2026-04-24 08:04 51.45433 57.25563 26701 ft 402 kts 284°
2026-04-24 08:04 51.46567 57.21446 27037 ft 403 kts 284°
2026-04-24 08:04 51.47706 57.17308 27366 ft 405 kts 284°
2026-04-24 08:04 51.48829 57.13220 27709 ft 406 kts 284°
2026-04-24 08:05 51.49972 57.09056 28045 ft 407 kts 284°
2026-04-24 08:05 51.51116 57.04876 28352 ft 408 kts 284°
2026-04-24 08:05 51.52260 57.00689 28694 ft 409 kts 285°
2026-04-24 08:05 51.53400 56.96520 29220 ft 406 kts 284°
2026-04-24 08:06 51.54528 56.92395 29892 ft 399 kts 283°
2026-04-24 08:06 51.55620 56.88390 30410 ft 394 kts 283°
2026-04-24 08:06 51.56718 56.84339 30706 ft 395 kts 283°
2026-04-24 08:06 51.57814 56.80274 30915 ft 398 kts 283°
2026-04-24 08:07 51.58912 56.76201 31198 ft 398 kts 283°
2026-04-24 08:07 51.60024 56.72106 31560 ft 397 kts 284°
2026-04-24 08:07 51.60823 56.69208 31806 ft 397 kts 284°